#timestamp,LO_Frequency,Hit,StdDev 
1595966635.4,286047009.0,P
1595966655.3,286047008.0,P
1595966675.1,286047008.3,P
1595966695.9,286047007.7,Y
1595966715.7,286046998.5,P
1595966735.5,286046999.7,N
1595966755.4,286047002.7,N
1595966775.2,286047000.5,N
1595966795.0,286046999.9,N
1595966795.9,286046999.9,N
1595966815.8,286047000.2,N
1595966835.6,286047002.0,N
1595966855.5,286047002.5,N
1595966875.3,286047002.5,N
1595966895.1,286047004.0,N
1595966915.9,286047004.0,N
1595966935.7,286047004.1,N
1595966955.5,286047003.7,N
1595966975.4,286047003.8,N
1595966995.2,286047004.2,N
1595967015.1,286047003.2,N
1595967016.0,286047003.2,N
1595967035.8,286047003.7,N
1595967055.6,286047003.7,N
1595967075.5,286047003.0,N
1595967095.3,286047003.9,N
1595967115.1,286047004.0,N
1595967135.9,286047003.0,N
1595967155.7,286047005.9,N
1595967175.6,286047003.3,N
1595967195.4,286047005.5,N
1595967215.2,286047005.1,N
1595967235.1,286047005.0,N
1595967236.0,286047005.0,N
1595967255.8,286047006.0,Y
1595967275.7,286046999.7,P
1595967295.5,286047000.5,N
1595967315.3,286046999.8,N
1595967335.2,286047002.2,N
1595967355.9,286047000.3,N
1595967375.7,286047002.3,N
1595967395.6,286047002.2,N
1595967415.4,286047002.4,N
1595967435.3,286047003.9,Y
1595967455.1,286047002.1,P
1595967456.0,286047002.1,P
1595967475.8,286047002.7,P
1595967495.7,286047001.8,Y
1595967515.5,286047001.1,P
1595967535.3,286047000.6,N
1595967555.2,286047000.3,N
1595967575.0,286047002.8,Y
1595967575.9,286047002.8,P
1595967595.8,286047000.5,N
1595967615.6,286047000.2,N
1595967635.4,286047002.8,N
1595967655.3,286047002.8,N
1595967675.1,286047002.4,N
1595967695.9,286047002.6,N
1595967715.7,286047001.7,N
1595967735.5,286047002.0,N
1595967755.4,286047001.6,N
1595967775.2,286047002.2,N
1595967795.0,286047001.6,N
1595967795.9,286047001.6,N
1595967815.8,286047001.4,N
1595967835.6,286047004.0,Y
1595967855.5,286046999.7,P
1595967875.3,286047002.0,N
1595967895.1,286047001.6,N
1595967915.9,286047001.9,N
1595967935.7,286047001.3,N
1595967955.6,286047001.4,N
1595967975.4,286047003.9,Y
1595967995.2,286047002.4,P
1595968015.1,286047001.8,P
1595968016.0,286047001.8,P
1595968035.8,286047001.4,Y
1595968055.7,286047000.6,P
1595968075.5,286047000.5,N
1595968095.3,286047001.2,N
1595968115.2,286046998.3,Y
1595968135.0,286046998.5,P
1595968135.9,286046998.5,N
1595968155.7,286047000.8,N
1595968175.6,286047000.9,N
1595968195.4,286047000.2,N
1595968215.3,286047000.2,N
1595968235.1,286046999.7,N
1595968236.0,286046999.7,N
1595968255.8,286047000.1,N
1595968275.7,286047002.3,N
1595968295.5,286047002.0,N
1595968315.3,286047002.2,N
1595968335.2,286047001.6,N
1595968355.0,286047001.4,N
1595968355.9,286047001.4,N
1595968375.8,286047003.2,N
1595968395.6,286047003.2,N
1595968415.4,286047003.0,N
1595968435.3,286047006.0,Y
1595968455.1,286047001.4,P
1595968475.9,286047003.8,P
1595968495.7,286047003.8,P
1595968515.5,286047003.6,N
1595968535.4,286047003.0,N
1595968555.2,286047005.6,Y
1595968575.0,286047001.9,P
1595968576.0,286047001.9,P
1595968595.8,286047001.6,P
1595968615.6,286047001.5,Y
1595968635.5,286047000.0,P
1595968655.3,286046999.7,N
1595968675.1,286047000.4,N
1595968695.9,286047000.1,N
1595968715.7,286047000.2,N
1595968735.6,286047001.9,N
1595968755.4,286047001.9,N
1595968775.2,286047001.5,N
1595968795.1,286047001.5,N
1595968796.0,286047001.5,N
1595968815.8,286047004.2,Y
1595968835.7,286047001.8,P
1595968855.5,286047001.4,P
1595968875.3,286047003.8,P
1595968895.2,286047003.6,Y
1595968915.0,286047002.1,P
1595968915.9,286047002.1,P
1595968935.7,286047002.0,P
1595968955.6,286047002.1,Y
1595968975.4,286047001.0,P
1595968995.3,286047002.0,P
1595969015.1,286047002.1,P
1595969016.0,286047002.1,Y
1595969035.8,286046998.5,P
1595969055.7,286047000.6,N
1595969075.5,286047000.4,N
1595969095.4,286047002.8,N
1595969115.2,286046999.7,N
1595969135.0,286047000.1,N
1595969135.9,286047000.1,N
1595969155.8,286047002.8,N
1595969175.6,286047002.6,N
1595969195.4,286047001.9,N
1595969215.3,286047004.3,Y
1595969235.1,286047001.5,P
1595969255.9,286047004.0,P
1595969275.7,286047004.3,P
1595969295.5,286047003.1,N
1595969315.4,286047003.7,N
1595969335